Location: Champseau
(45.8333°N, 1.7667°E)
Time: 06:20:54
(UTC+00:00)

Orbus 7S? - Pass Details

Date: 18 April 2021
Orbit: 334 x 6415 km, 56.9° (Epoch: 01 May)

Event Time Altitude Azimuth Distance (km) Brightness Sun altitude
Rises 20:14:25 0° 236° (WSW) 2,140 6.6 -15.0°
Reaches altitude 10° 20:15:59 10° 239° (WSW) 1,402 5.7 -15.2°
Maximum altitude 20:18:45 70° 324° (NW) 538 3.4 -15.6°
Drops below altitude 10° 20:23:51 10° 49° (NE) 2,556 6.6 -16.4°
Sets 20:27:40 0° 52° (NE) 4,250 7.7 -16.9°
